GW2402 Weather Reports


Display with metric or nautical units.
time (UTC)temp
F
wind
direction
speed
MPH
gust
MPH
rain 1hr
in
rain 24hr
in
rain mn
in
humidity
%
barometer
mb
20260508120051 64 0 0.0 0.0 0.00 0.00 0.00 79 1014.2
20260508114556 64 0 0.0 0.0 0.00 0.00 0.00 79 1014.3
20260508113101 64 0 0.0 0.0 0.00 0.00 0.00 79 1014.2
20260508111546 64 0 0.0 0.0 0.00 0.00 0.00 78 1014.3
20260508110045 64 0 0.0 0.0 0.00 0.00 0.00 78 1013.9
20260508104540 64 0 0.0 0.0 0.00 0.00 0.00 78 1014.2
20260508103050 64 0 0.0 0.0 0.00 0.00 0.00 78 1014.0
20260508101548 64 0 0.0 0.0 0.00 0.00 0.00 78 1014.0
20260508094545 64 0 0.0 0.0 0.00 0.00 0.00 78 1014.0
20260508093041 64 0 0.0 0.0 0.00 0.00 0.00 78 1014.3
20260508091605 64 0 0.0 0.0 0.00 0.00 0.00 78 1014.3
20260508090051 64 0 0.0 0.0 0.00 0.00 0.00 77 1013.9
20260508084549 64 0 0.0 0.0 0.00 0.00 0.00 78 1014.1
20260508083046 64 0 0.0 0.0 0.00 0.00 0.00 78 1014.0
20260508081608 64 0 0.0 0.0 0.00 0.00 0.00 78 1014.1
20260508080050 64 0 0.0 0.0 0.00 0.00 0.00 77 1014.3
20260508074551 64 0 0.0 0.0 0.00 0.00 0.00 77 1014.1
20260508073056 64 0 0.0 1.0 0.00 0.00 0.00 77 1014.2
20260508071551 64 0 0.0 0.0 0.00 0.00 0.00 77 1013.8
20260508070052 64 0 0.0 0.0 0.00 0.00 0.00 77 1014.0
20260508064549 64 0 0.0 0.0 0.00 0.00 0.00 77 1014.5
20260508063055 64 0 0.0 0.0 0.00 0.00 0.00 77 1015.1
20260508061548 63 0 0.0 0.0 0.00 0.00 0.00 77 1014.9
20260508060100 63 0 0.0 0.0 0.00 0.00 0.00 76 1014.7
20260508054636 63 0 0.0 0.0 0.00 0.00 0.00 76 1015.2
20260508053053 63 0 0.0 1.0 0.00 0.00 0.00 76 1015.1
20260508051552 63 0 0.0 0.0 0.00 0.00 0.00 76 1014.4
20260508050059 63 0 0.0 0.0 0.00 0.00 0.00 77 1015.3
20260508044547 63 0 0.0 0.0 0.00 0.00 0.00 77 1014.7
20260508043052 63 0 0.0 0.0 0.00 0.00 0.00 78 1014.6
20260508041545 63 0 0.0 0.0 0.00 0.00 0.00 78 1014.8
20260508040043 63 0 0.0 0.0 0.00 0.00 0.00 77 1015.3
20260508034547 63 0 0.0 0.0 0.00 0.00 0.00 77 1015.6
20260508033037 63 0 0.0 1.0 0.00 0.00 0.00 77 1015.9
20260508031549 63 0 0.0 0.0 0.00 0.00 0.00 77 1016.0
20260508030046 63 0 0.0 0.0 0.00 0.00 0.00 77 1015.1
20260508024544 64 0 0.0 0.0 0.00 0.00 0.00 77 1015.2
20260508023046 64 0 0.0 0.0 0.00 0.00 0.00 77 1014.1
20260508021547 64 0 0.0 0.0 0.00 0.00 0.00 76 1014.0
20260508020101 64 0 0.0 1.0 0.00 0.00 0.00 75 1013.6
20260508014547 65 0 0.0 1.0 0.00 0.00 0.00 74 1013.7
20260508013042 65 98 0.0 1.0 0.00 0.00 0.00 73 1013.9
20260508011545 65 0 0.0 1.0 0.00 0.00 0.00 71 1014.5
20260508010051 65 0 0.0 1.0 0.00 0.00 0.00 71 1013.9
20260508004553 66 0 0.0 1.0 0.00 0.00 0.00 70 1014.7
20260508003050 66 0 0.0 0.0 0.00 0.00 0.00 70 1014.7
20260508001550 67 0 0.0 1.0 0.00 0.00 0.00 70 1014.7
20260508000047 67 0 0.0 1.0 0.00 0.00 0.00 66 1015.1
20260507234550 68 0 0.0 1.0 0.00 0.00 0.00 66 1015.4
20260507233043 69 0 0.0 1.0 0.00 0.00 0.00 66 1015.4
20260507231549 69 53 0.0 1.0 0.00 0.00 0.00 67 1015.0
20260507230047 69 0 0.0 1.0 0.00 0.00 0.00 66 1015.3
20260507224547 69 0 0.0 1.0 0.00 0.00 0.00 66 1015.6
20260507223046 68 0 0.0 1.0 0.00 0.00 0.00 67 1015.9
20260507221548 68 0 0.0 1.0 0.00 0.00 0.00 67 1016.0
20260507220049 68 0 0.0 1.0 0.00 0.00 0.00 67 1015.8
20260507214550 68 293 0.0 1.0 0.00 0.00 0.00 68 1015.7
20260507213045 68 101 0.0 1.0 0.00 0.00 0.00 68 1015.7
20260507211554 68 0 0.0 2.0 0.00 0.00 0.00 67 1015.9
20260507210100 67 0 0.0 3.0 0.00 0.00 0.00 68 1015.6
20260507204549 67 0 0.0 3.0 0.00 0.00 0.00 69 1015.7
20260507203055 67 0 0.0 4.0 0.00 0.00 0.00 70 1016.4
20260507201549 67 99 0.0 2.0 0.00 0.00 0.00 70 1016.7
20260507200051 67 100 0.0 1.0 0.00 0.00 0.00 72 1016.5
20260507194554 66 0 0.0 2.0 0.00 0.00 0.00 75 1016.6
20260507193046 65 269 0.0 1.0 0.00 0.00 0.00 78 1016.8
20260507191545 65 0 0.0 0.0 0.00 0.00 0.00 74 1017.2
20260507190052 66 0 0.0 1.0 0.00 0.00 0.00 72 1017.3
20260507184548 66 0 0.0 1.0 0.00 0.00 0.00 73 1017.5
20260507183051 66 0 0.0 1.0 0.00 0.00 0.00 73 1017.7
20260507181552 65 110 0.0 2.0 0.00 0.00 0.00 74 1017.6
20260507180053 64 244 0.0 3.0 0.00 0.00 0.00 75 1016.9
20260507174605 63 0 0.0 1.0 0.00 0.00 0.00 76 1017.6
20260507173045 63 0 0.0 1.0 0.00 0.00 0.00 77 1017.3
20260507171603 62 0 0.0 1.0 0.00 0.00 0.00 79 1017.4
20260507170049 62 0 0.0 1.0 0.00 0.00 0.00 79 1017.9
20260507164552 61 0 0.0 2.0 0.00 0.00 0.00 80 1018.0
20260507163051 61 0 0.0 3.0 0.00 0.00 0.00 80 1018.1
20260507161550 61 86 0.0 2.0 0.00 0.00 0.00 80 1018.9
20260507160058 61 257 0.0 1.0 0.00 0.00 0.00 80 1017.8
20260507154554 61 0 0.0 1.0 0.00 0.00 0.00 81 1018.6
20260507153051 61 97 0.0 2.0 0.00 0.00 0.00 81 1018.6
20260507151548 61 0 0.0 4.0 0.00 0.00 0.00 81 1018.6
20260507150043 61 240 0.0 2.0 0.00 0.00 0.00 82 1018.5
20260507144553 61 0 1.0 5.0 0.00 0.00 0.00 82 1018.3
20260507143050 62 0 0.0 3.0 0.00 0.00 0.00 82 1018.3
20260507141551 61 0 0.0 3.0 0.00 0.00 0.00 83 1018.3
20260507134549 61 106 0.0 2.0 0.00 0.00 0.00 84 1017.9
20260507133055 61 0 0.0 3.0 0.00 0.00 0.00 84 1017.7
20260507131548 61 0 0.0 4.0 0.00 0.00 0.00 84 1017.3
20260507124600 61 273 0.0 3.0 0.00 0.00 0.00 84 1017.7
20260507123044 60 0 0.0 4.0 0.00 0.00 0.00 84 1017.6
20260507121549 60 0 0.0 1.0 0.00 0.00 0.00 85 1017.3